Location: Unspecified
(0.0000°N, 0.0000°E)
Time: 02:59:06
(UTC+00:00)

Vanguard 1 - Pass Details

Date: 16 February 2018
Orbit: 650 x 3833 km, 34.2° (Epoch: 22 February)

Event Time Altitude Azimuth Distance (km) Brightness Sun altitude
Exits shadow 03:15:46 27° 204° (SSW) 3,578 12.7 -43.3°
Maximum altitude 03:16:39 27° 199° (SSW) 3,656 12.8 -43.1°
Drops below altitude 10° 03:30:09 10° 148° (SSE) 6,094 14.5 -39.8°
Sets 03:37:15 0° 137° (SE) 7,567 15.3 -38.1°
